Regional Weather Roundup
Issued by NWS Upton, NY

Current Version | Previous Version | Graphics & Text | Print | Product List | Glossary Off
Versions: 1 2 3 4 5 6 7 8 9 10 11 12 13 14 15 16 17 18 19 20 21 22 23 24 25 26 27

000
ASUS41 KOKX 201808
RWROKX

REGIONAL WEATHER ROUNDUP
NATIONAL WEATHER SERVICE NEW YORK NY
200 PM EDT SUN AUG 20 2017

NOTE: "FAIR" INDICATES FEW OR NO CLOUDS BELOW 12,000 FEET WITH NO
SIGNIFICANT WEATHER AND/OR OBSTRUCTIONS TO VISIBILITY.

NYZ071-072-176-178-NJZ106-104-201900-
NEW YORK CITY METRO AREA

CITY           SKY/WX    TMP DP  RH WIND       PRES   REMARKS
Central Park   SUNNY     80  58  46 VRB7      30.10R
Bronx Bot Gard   N/A     81  57  44 W8        30.11R
LaGuardia APRT PTSUNNY   81  60  48 NW16G23   30.06R
Kennedy INTL   MOSUNNY   83  59  44 NW15      30.07R
Breezy Point     N/A     79 N/A N/A NW9G15      N/A
Newark/Liberty PTSUNNY   83  59  44 NW13G22   30.08R
Teterboro      MOSUNNY   81  60  48 NW13G20   30.06S
$$

NYZ177-179-078>081-201900-
LONG ISLAND NEW YORK

CITY           SKY/WX    TMP DP  RH WIND       PRES   REMARKS
Jones Beach      N/A     79 N/A N/A NW12G17     N/A
Matinecock PT    N/A     77 N/A N/A W13         N/A
Farmingdale    MOSUNNY   81  60  48 W10G21    30.06R
MacArthur/ISP  MOSUNNY   82  62  50 N7        30.05S
Shirley        PTSUNNY   83  63  50 NW13      30.06R
Mt Sinai Harb    N/A     81 N/A N/A W5          N/A
Westhampton    MOSUNNY   81  58  45 NW12G22   30.06R
East Hampton   FAIR      79  62  54 W10G16    30.03S
Montauk          N/A     79  64  60 W9        30.03S
$$

NYZ052-065-067-201900-
HUDSON VALLEY

CITY           SKY/WX    TMP DP  RH WIND       PRES   REMARKS
White Plains   MOSUNNY   79  59  50 NW12      30.07S
Larchmont Harb   N/A     77 N/A N/A W14G20      N/A
Croton On Huds   N/A     77 N/A N/A W9          N/A
Newburgh       MOSUNNY   77  61  57 W12       30.10R
Montgomery     MOSUNNY   80  59  48 NW7       30.08S
Poughkeepsie   MOSUNNY   79  57  46 VRB7      30.06S
Albany         MOSUNNY   79  59  50 NW8       30.07R
$$

NJZ001-105-106-008-010-013-015-019>022-104-201900-
NEW JERSEY

CITY           SKY/WX    TMP DP  RH WIND       PRES   REMARKS
Newark/Liberty PTSUNNY   83  59  44 NW13G22   30.08R
Teterboro      MOSUNNY   81  60  48 NW13G20   30.06S
Caldwell       MOSUNNY   79  60  52 NW12G20   30.10R
Somerville     MOSUNNY   82  60  47 NW9       30.08S
Linden         FAIR      81  58  45 NW7       30.09R
Perth Amboy      N/A     77 N/A N/A NW12G17     N/A
Sussex         SUNNY     79  60  52 N8        30.10S
Andover          N/A     79  60  52 N7        30.11R
Trenton        SUNNY     81  61  50 NW9       30.10R
Millville      SUNNY     85  65  51 VRB6      30.11S
Atlantic City  SUNNY     83  61  47 W9        30.10R
Wrightstown    SUNNY     81  61  50 N12       30.07S
Toms River     SUNNY     81  62  52 NW9       30.10R
Belmar         SUNNY     82  61  48 W9        30.10R
$$

PAZ047>061-062-071-201900-
EASTERN PENNSYLVANIA

CITY           SKY/WX    TMP DP  RH WIND       PRES   REMARKS
Philadelphia   MOSUNNY   83  57  41 W9        30.12R
Allentown      SUNNY     81  60  48 NW8       30.12S
Scranton       MOSUNNY   78  60  53 NW8       30.14F
$$

CTZ002-004>006-009-010-012-RIZ004-006-007-MAZ004-011-015-201900-
SOUTHERN NEW ENGLAND
 IN CT

CITY           SKY/WX    TMP DP  RH WIND       PRES   REMARKS
Bradley INTL   MOSUNNY   82  58  43 NW13      30.03R
Hartford       MOSUNNY   82  59  45 N12       30.02S
Danbury        MOSUNNY   78  58  49 NW9       30.08S
Wtrbury/Oxford MOSUNNY   76  61  59 NW7       30.08R
Norwalk Harbor   N/A     77 N/A N/A NW14        N/A
Bridgeport     MOSUNNY   82  59  45 NW16      30.04S
Meriden        MOSUNNY   80  59  48 VRB7      30.04R
New Haven      MOSUNNY   80  59  48 NW8       30.04S
Chester        FAIR      79  57  47 VRB6G18   30.04S
Groton         PTSUNNY   82  60  47 NW10      30.01R
Wilimantic     MOSUNNY   81  59  47 W12G20    30.02R

 IN RI

CITY           SKY/WX    TMP DP  RH WIND       PRES   REMARKS
Providence     MOSUNNY   83  60  45 NW13G20   30.00R
Block Island   SUNNY     77  65  66 W13G22    30.02S
Westerly       MOSUNNY   84  60  44 NW8       30.01S
 IN MA

CITY           SKY/WX    TMP DP  RH WIND       PRES   REMARKS
Boston         MOSUNNY   83  58  42 W13G18    29.96R
Worcester      PTSUNNY   78  55  44 W8G23     30.03R
Westfield      PTSUNNY   82  57  42 NW12G18   30.02S
Provincetown   SUNNY     79  63  57 NW9       29.98R
Nantucket      SUNNY     79  66  64 W16       29.98R
$$

ANZ330-335-338-340-345-350-353-355-201900-
COASTAL MARINE OBSERVATIONS


STATION/POSITION TIME  SKY/WX   TEMP    WIND        PRES    VSBY  WAVE
                                AIR SEA DIR/SP/G                  HT/PER
                 (UTC)          (F)     (DEG/KT/KT) (MB)    (MI)  (FT/S)
NY HARB ENTRANCE 1750            76 76  270/ 12/ 14 1018.0          2/ 6
GREAT SOUTH BAY  1700            77 79  330/  8/ 10   N/A
23 SSW MONTAUK P 1650            72 72              1017.2          3/ 5
15 E BARNEGAT LI 1730               77                N/A           2/ 7
HUDSON CANYON    1650            73 74  300/ 12/ 14 1017.3          4/ 5
KINGS POINT      1736            76 74  350/  9/ 13 1018.1
EXECUTION ROCKS  NOT AVBL
WESTERN LI SOUND NOT AVBL
CENTRAL LI SOUND NOT AVBL
EASTERN LI SOUND NOT AVBL
ROBBINS REEF     1736                   330/ 13/ 15 1019.0
$$


>>>>>>>>>>>>>>>>>>>>>>>>>>>> KEY <<<<<<<<<<<<<<<<<<<<<<<<<<<
>                                                          <
>     SKY/WX - Sky Condition/Present Weather               <
>     TMP    - Temperature in Fahrenheit                   <
>     DP     - Dew Point in Fahrenheit                     <
>     RH     - Relative Humidity in Percent                <
>     WIND   - Direction (from) and Speed in MPH           <
>     PRES   - Mean Sea Level Pressure (inches of Hg)      <
>     WCI    - Wind Chill Index                            <
>     VSB    - VISIBILITY IN MILES                         <
>     HX     - HEAT INDEX                                  <
>     TC     - TEMPERATURE IN CELSIUS                      <
>     VRB    - VARIABLE WIND DIRECTION                     <
>                                                          <
>>>>>>>>>>>>>>>>>>>>>>>>>>>> KEY <<<<<<<<<<<<<<<<<<<<<<<<<<<




USA.gov is the U.S. government's official web portal to all federal, state and local government web resources and services.